Location: Unspecified
(0.0000°N, 0.0000°E)
Time: 07:08:36
(UTC+01:00)

Vanguard 1 Rocket - Visible Passes

Search period start: 04 December 2016 00:00
Search period end: 14 December 2016 00:00
Orbit: 651 x 4226 km, 34.3° (Epoch: 29 November)

Date Brightness Start Highest point End Pass type
(mag) Time Alt. Az. Time Alt. Az. Time Alt. Az.
04 Dec 9.1 04:41:54 14° SSW 04:41:54 14° SSW 04:43:29 10° S visible
04 Dec 10.9 19:45:56 10° NW 19:58:33 17° NNW 20:08:13 10° NNE visible
05 Dec 10.9 21:15:27 10° NNW 21:19:17 11° N 21:21:09 11° N visible
06 Dec 10.9 19:52:11 10° NW 20:03:14 15° NNW 20:11:50 10° NNE visible
07 Dec 10.8 21:18:04 10° NNW 21:24:03 13° N 21:24:15 13° N visible
08 Dec 10.8 19:57:40 10° NW 20:08:07 15° N 20:16:14 10° NNE visible
09 Dec 10.7 21:20:14 10° NNW 21:27:25 15° N 21:27:25 15° N visible
10 Dec 10.7 20:02:03 10° NW 20:13:02 16° N 20:20:24 11° NNE visible
10 Dec 11.0 22:37:01 10° NNW 22:37:43 11° NNW 22:37:43 11° NNW visible
11 Dec 10.6 21:22:17 10° NNW 21:30:44 19° N 21:30:44 19° N visible
12 Dec 10.6 20:05:27 10° NNW 20:17:53 18° N 20:23:48 14° NNE visible
12 Dec 10.9 22:38:59 10° NW 22:41:07 14° NNW 22:41:07 14° NNW visible
13 Dec 10.4 21:24:18 10° NNW 21:34:15 23° N 21:34:15 23° N visible
